GFSFLT2_sfc_thetae_021.txt.gz
Theta_e
323 323 323 324 324 325 325 324 323 325 329 328 328 328 325 324 324 327 323 322 325 326 326 326 327 327 326 325 325 327 326 323
321 321 322 324 325 325 324 322 323 324 328 327 328 325 325 325 325 324 327 324 324 326 328 328 329 327 327 329 329 327 325 323
320 320 321 323 322 323 322 321 322 323 328 328 328 326 326 325 325 323 325 325 323 327 327 326 324 322 321 325 328 326 324 323
320 321 323 323 323 320 320 320 322 326 327 328 329 329 328 327 326 327 321 324 326 326 327 324 320 320 305 309 319 326 325 325
321 322 323 322 320 319 318 320 322 327 327 329 330 328 326 327 327 322 323 324 327 325 324 320 317 313 302 303 309 325 326 324
321 322 322 321 319 318 319 320 320 324 327 327 326 326 324 325 326 324 324 322 322 322 324 320 317 313 303 302 312 325 324 324
321 324 323 319 319 319 319 318 319 320 325 323 324 325 323 326 326 323 323 323 323 322 324 320 317 313 304 301 319 324 324 324
324 324 322 319 319 318 318 316 317 318 325 324 325 325 326 326 327 323 323 324 325 328 325 322 315 315 305 301 318 326 323 322
325 324 321 319 319 318 316 316 316 320 326 326 325 325 327 326 325 324 325 325 325 324 323 321 320 317 311 302 309 325 324 322
325 323 321 321 319 319 317 315 318 322 324 326 327 327 330 328 324 324 325 324 322 321 321 320 321 318 309 302 302 314 316 322
326 323 320 320 319 318 317 316 319 322 323 326 326 326 326 325 324 323 324 323 323 322 321 320 318 318 313 304 304 310 310 320
325 323 320 319 319 319 319 319 320 322 325 325 325 326 324 324 324 324 324 323 323 323 322 320 318 318 318 317 314 314 307 309
324 323 321 320 320 318 321 319 319 322 325 325 323 326 325 323 319 316 321 319 326 326 325 323 320 318 320 315 317 320 319 313
323 325 322 321 321 320 321 320 319 322 325 325 324 325 326 324 315 311 298 298 302 309 310 319 322 313 304 305 306 305 303 303
320 324 325 322 321 320 321 321 320 322 323 324 323 322 324 322 319 315 310 308 301 297 301 307 309 308 302 302 300 301 300 305
319 324 326 323 322 321 321 321 320 322 321 310 322 320 322 321 321 321 317 313 311 310 303 304 301 301 302 300 296 302 311 310
317 320 328 327 323 321 322 321 320 323 321 320 320 320 321 320 322 320 321 317 316 313 307 304 297 295 296 296 298 320 320 319
315 315 323 327 325 326 323 321 320 323 321 312 314 319 317 320 319 322 320 320 319 314 311 313 304 304 308 308 309 320 320 321
315 320 321 323 319 327 330 320 321 322 322 315 313 318 317 315 318 315 319 322 321 319 315 313 301 316 316 316 316 318 321 321
315 316 320 321 316 324 322 316 318 321 323 321 317 319 317 316 314 315 315 316 322 321 319 313 294 319 318 318 319 319 321 320

GFSFLT2_sfc_thetae_024.txt.gz
Theta_e
322 323 324 324 324 324 323 323 322 324 325 324 326 325 322 321 322 322 320 319 321 326 322 325 325 325 324 324 326 326 323 322
321 322 323 324 325 324 323 322 322 325 326 327 324 323 322 321 322 321 320 320 324 324 326 328 326 325 326 328 328 326 323 322
320 320 322 322 323 323 323 321 321 324 326 327 325 325 323 322 322 321 326 324 325 326 327 323 321 321 319 321 325 323 322 321
320 321 322 322 322 322 321 320 319 324 326 326 327 327 324 324 321 320 321 321 323 325 323 320 318 318 303 307 319 322 323 322
320 321 322 322 322 321 318 318 322 324 327 329 328 325 324 323 324 322 319 324 323 325 319 316 315 313 302 302 312 323 321 322
321 322 322 322 321 318 317 321 323 324 327 329 326 323 322 322 321 318 319 320 320 320 317 316 314 314 302 302 310 322 321 324
322 323 322 319 318 317 319 320 322 323 325 325 325 323 321 323 323 319 319 320 318 319 318 316 315 313 301 303 316 321 321 324
322 322 321 318 315 318 318 317 319 321 325 323 324 323 323 323 324 320 320 320 322 322 319 317 312 315 300 302 316 323 321 322
322 321 319 317 317 318 316 315 315 321 324 325 322 322 322 322 321 320 321 321 321 322 319 316 315 314 310 302 308 321 322 322
322 319 317 317 317 317 315 313 316 322 324 323 322 323 325 324 321 322 322 321 319 318 317 316 316 315 305 300 303 310 312 322
321 318 317 316 316 317 314 315 317 322 322 322 322 324 324 322 321 321 320 319 318 317 317 317 315 315 314 301 301 303 306 317
321 318 316 315 314 317 317 315 319 323 322 323 323 323 321 321 322 322 321 319 318 319 318 315 315 315 316 314 312 311 305 309
322 318 317 316 315 316 317 316 321 323 323 323 323 322 321 319 316 317 322 322 321 321 320 318 316 315 317 310 313 316 314 309
320 319 319 318 317 316 319 316 323 323 321 323 323 322 320 318 312 308 298 300 300 305 309 315 319 310 302 302 303 301 299 300
316 319 321 320 318 317 320 317 324 323 322 322 323 321 322 317 313 311 309 306 297 298 300 303 307 306 300 299 300 298 298 305
315 321 326 321 319 318 320 318 323 324 322 310 324 324 324 320 316 312 310 310 312 313 300 301 299 299 298 297 297 300 309 309
315 320 322 322 321 320 320 320 320 323 323 322 323 323 323 321 319 315 312 310 310 311 307 303 296 293 295 294 298 318 316 315
314 315 318 321 320 322 324 319 319 321 323 313 315 320 319 319 320 319 316 313 311 310 312 318 303 305 308 307 307 316 319 318
315 316 313 317 320 317 316 316 318 320 321 317 314 320 318 319 318 320 320 318 315 312 313 312 299 317 316 317 315 315 319 321
310 309 309 310 314 315 313 309 311 316 319 318 318 319 318 317 317 317 319 320 318 316 313 311 292 317 318 318 319 318 320 321

GFSFLT2_sfc_thetae_030.txt.gz
Theta_e
321 322 321 321 320 321 322 322 322 323 323 321 321 320 320 320 321 322 321 322 323 324 323 324 326 326 325 325 324 325 323 322
321 322 320 321 321 322 322 321 322 322 322 321 320 320 320 321 322 321 320 321 321 323 324 327 326 325 324 325 327 326 323 322
320 320 320 320 320 321 322 322 322 322 322 321 320 320 321 321 321 320 320 321 323 326 327 324 323 321 316 320 326 324 322 322
320 321 321 320 321 321 321 321 321 322 322 321 323 324 321 321 321 320 321 323 326 326 323 322 320 317 302 309 319 324 323 323
320 321 322 322 321 322 320 320 321 322 324 325 325 323 321 321 321 321 319 322 325 324 320 319 318 317 300 307 310 323 324 323
320 321 322 322 321 320 320 319 321 323 324 325 324 323 321 321 320 319 321 324 324 322 318 317 318 314 302 303 308 325 325 323
321 322 321 320 320 319 319 318 321 324 325 324 324 322 321 320 319 317 319 321 320 319 318 317 319 317 301 303 317 324 322 321
320 321 320 319 318 318 318 318 320 322 325 324 324 322 320 320 318 318 320 320 320 320 317 318 312 318 301 302 316 324 320 319
320 320 320 320 316 318 317 318 319 323 326 325 323 321 320 321 319 321 321 321 321 319 317 318 319 316 311 301 307 323 321 319
321 320 318 317 317 318 316 318 321 323 326 323 321 320 322 322 320 321 322 321 319 317 316 316 317 318 305 300 304 309 312 320
321 321 317 315 317 319 316 318 320 322 322 321 320 321 322 321 321 320 320 321 319 317 318 317 316 319 314 299 298 300 306 319
320 318 316 314 317 317 319 316 320 321 320 320 320 320 320 321 322 322 321 319 319 317 317 317 318 319 317 314 311 311 304 308
318 317 317 316 316 316 315 317 321 320 320 320 320 320 321 320 319 319 321 321 319 320 319 318 317 319 318 311 312 318 318 311
317 317 316 316 316 315 314 319 321 320 319 320 320 320 320 320 317 312 296 301 303 304 302 313 318 305 297 297 297 297 298 301
319 319 318 317 316 315 315 320 321 320 320 320 320 318 320 318 317 318 317 307 296 298 296 300 304 301 295 295 295 296 296 305
315 320 319 319 318 316 317 321 321 321 321 307 321 321 321 318 318 318 318 316 316 315 299 300 295 293 293 293 294 300 313 313
311 310 310 314 316 316 319 322 321 321 321 320 322 322 321 317 317 316 315 315 316 315 311 303 294 291 292 292 295 319 317 318
306 304 308 308 309 313 314 320 321 321 321 310 314 322 320 319 317 316 314 314 314 316 317 317 306 307 312 309 310 317 318 319
305 304 305 306 305 311 314 310 319 321 320 318 312 323 321 321 319 317 317 315 314 314 317 312 298 318 319 316 314 316 317 319
302 302 301 304 303 307 314 311 314 318 320 319 320 322 322 322 321 321 318 317 315 315 314 310 290 315 320 320 320 320 320 321

GFSFLT2_sfc_thetae_033.txt.gz
Theta_e
323 325 328 331 332 332 332 332 332 333 333 333 333 333 334 334 334 333 333 332 333 333 333 331 331 333 333 333 329 326 325 325
323 324 328 331 332 330 330 330 331 332 331 331 331 332 333 333 333 332 332 332 332 332 332 332 333 333 331 331 330 328 325 326
322 323 327 330 330 330 330 330 330 331 329 329 331 332 333 332 331 331 331 332 331 331 332 332 332 329 325 327 330 328 326 322
323 324 327 329 329 329 329 329 329 330 329 329 330 331 331 331 331 330 330 330 333 331 332 330 328 327 302 309 322 327 325 324
324 326 329 330 329 330 329 329 330 330 329 329 330 330 329 330 329 329 329 331 331 328 331 329 328 329 302 305 311 328 328 325
328 330 330 331 331 330 331 330 329 329 329 329 329 329 328 329 328 328 331 331 330 327 330 329 330 322 302 302 308 328 327 326
330 331 331 331 330 331 330 328 329 329 330 330 330 329 328 328 328 330 332 332 327 328 329 328 330 323 301 302 317 327 325 323
330 331 331 331 331 331 328 327 328 328 330 330 330 329 328 328 329 330 332 334 331 329 327 329 316 324 300 303 317 325 321 319
331 330 330 331 330 330 328 328 328 330 332 331 330 329 329 330 330 330 331 331 330 329 327 329 326 322 316 300 308 324 321 321
330 329 330 331 330 329 327 328 330 330 332 331 329 330 327 329 330 330 331 332 330 328 327 323 322 322 306 301 304 309 313 322
328 329 329 329 329 330 327 330 330 330 332 329 330 329 329 331 330 331 330 330 328 325 325 322 320 321 315 299 299 301 306 321
327 326 327 327 329 329 330 330 330 330 331 328 330 329 328 330 330 331 330 329 327 324 323 321 321 321 318 316 316 314 305 309
327 325 327 328 329 328 330 329 330 330 330 326 330 329 329 330 330 329 331 332 327 327 325 324 322 321 320 313 317 322 321 314
324 325 327 328 327 328 328 329 330 331 330 328 328 329 329 329 327 324 296 301 300 301 304 317 325 306 299 299 299 298 298 300
322 324 326 327 326 326 328 328 329 330 330 330 329 326 329 328 328 328 325 311 295 295 296 299 303 302 296 295 295 296 297 304
322 323 324 325 324 325 326 327 329 330 332 310 330 329 329 329 328 328 328 327 323 326 300 301 293 294 294 294 295 301 315 315
315 318 320 321 321 321 324 327 328 328 329 328 330 330 330 326 329 327 327 326 326 326 317 305 296 291 292 293 297 323 320 320
309 309 313 314 316 319 322 326 328 328 329 313 318 330 329 329 328 326 325 325 325 325 328 326 310 309 315 311 321 325 324 324
307 304 306 308 311 319 320 324 327 326 328 328 313 329 329 329 329 327 326 324 324 326 328 324 300 326 325 323 324 326 327 327
305 303 300 303 303 314 320 318 325 327 327 327 328 328 329 329 329 329 328 327 326 325 326 318 291 324 329 328 327 328 329 329

GFSFLT2_sfc_thetae_036.txt.gz
Theta_e
326 328 331 334 338 340 341 341 341 341 341 340 340 341 341 341 341 341 339 337 335 334 335 335 334 334 335 335 334 333 326 326
325 327 330 333 337 338 338 338 338 338 337 337 338 338 339 339 339 338 336 335 335 335 335 333 334 335 333 333 334 332 329 325
324 326 329 331 332 335 336 335 335 335 333 333 334 336 337 336 335 335 335 335 334 333 334 334 335 334 330 334 332 329 326 328
325 326 328 329 331 333 334 333 332 331 330 331 334 335 335 334 334 334 334 333 333 333 333 333 333 331 305 310 323 331 326 325
326 326 330 332 331 332 333 331 329 330 330 331 332 333 333 333 332 332 332 333 335 334 334 333 334 334 305 306 311 331 326 326
328 329 332 333 332 334 333 329 329 329 330 330 331 331 331 331 331 331 333 334 335 335 334 334 335 327 304 303 309 332 328 326
331 333 334 333 333 334 330 327 329 329 329 330 330 330 330 329 329 332 333 334 333 334 334 334 334 331 303 303 315 330 325 323
331 333 335 335 334 333 328 328 328 329 329 329 330 330 330 330 331 332 334 333 332 331 333 335 319 329 301 303 316 325 322 319
333 335 333 334 334 332 326 328 328 329 330 331 331 331 330 331 332 334 334 333 333 333 332 333 329 327 321 302 308 326 322 321
332 332 332 333 333 329 326 328 330 331 332 331 331 331 330 330 333 333 334 335 333 333 332 328 327 327 309 304 305 310 313 325
333 332 331 332 331 328 328 331 331 332 332 331 331 331 331 332 333 333 334 336 335 331 330 328 325 323 317 299 300 302 305 324
332 330 328 327 328 328 330 332 332 332 332 331 331 331 331 332 332 335 336 335 331 329 328 327 325 321 319 322 319 321 306 310
331 328 326 326 327 329 331 332 332 331 332 331 331 331 332 331 334 332 336 336 326 330 331 329 324 322 320 316 318 325 324 314
332 329 327 324 325 328 330 331 332 333 331 330 328 329 330 330 330 329 298 299 298 299 300 316 327 309 301 300 299 298 299 300
328 331 331 329 325 326 329 330 332 333 330 332 330 326 328 328 329 331 328 314 296 295 297 297 305 304 297 296 296 297 297 303
328 329 331 332 331 328 328 329 331 332 333 313 330 329 329 327 329 330 328 330 328 327 300 301 295 295 295 294 296 302 316 317
324 325 326 330 330 331 331 328 330 330 332 330 329 329 330 325 327 328 327 327 329 330 324 308 298 292 292 294 299 324 323 324
312 314 318 321 323 326 330 329 330 330 330 312 318 330 331 330 327 327 328 328 328 331 330 327 315 312 315 313 322 324 323 325
307 308 310 312 313 322 326 331 330 328 328 331 313 330 330 329 329 326 325 326 327 328 330 325 305 330 328 325 328 329 329 329
303 302 302 305 307 316 322 324 329 328 328 329 329 328 329 329 330 330 328 326 325 326 329 321 294 327 330 330 330 331 332 332

GFSFLT2_sfc_thetae_042.txt.gz
Theta_e
326 328 331 334 338 338 339 342 343 344 343 343 342 340 340 341 341 342 343 341 342 338 337 335 334 335 333 336 336 334 333 331
327 330 334 336 336 337 339 339 341 340 340 340 339 341 342 342 342 343 340 339 337 337 336 334 334 333 334 335 335 334 332 329
326 330 334 334 333 335 337 338 339 339 338 339 340 342 342 341 340 339 337 337 333 334 333 333 332 330 328 334 335 333 330 326
326 328 331 329 332 332 334 335 335 339 337 338 339 338 338 338 338 332 331 334 334 332 332 332 328 326 306 311 328 329 329 327
323 327 330 333 332 332 331 335 336 335 334 333 333 333 331 331 333 332 332 334 335 333 333 333 331 324 306 308 318 331 327 326
321 330 332 334 333 331 332 333 332 331 330 329 331 331 331 331 331 331 331 335 336 335 334 334 329 320 307 307 309 330 327 325
325 332 333 334 333 330 331 329 329 328 328 330 330 330 330 330 331 331 333 335 334 334 334 333 329 323 304 306 318 329 324 323
327 331 333 336 331 329 329 328 328 327 329 329 331 330 329 330 332 331 334 334 334 333 333 333 318 324 302 307 321 327 323 322
325 330 330 334 333 331 329 328 327 330 331 330 331 329 331 332 332 334 335 333 333 332 332 330 328 325 317 307 310 323 322 321
327 328 332 334 331 330 328 329 331 331 330 329 330 331 327 332 332 331 335 335 332 330 328 326 326 324 311 305 302 310 314 322
329 329 333 331 330 330 331 331 332 331 331 330 330 332 328 333 329 330 334 333 331 330 329 325 323 324 318 299 300 302 307 321
329 332 328 327 329 332 332 332 332 331 330 329 331 329 331 331 331 335 332 331 331 330 328 325 323 323 322 318 318 315 305 307
330 328 326 328 328 331 331 331 331 329 330 329 329 329 331 328 319 318 326 314 318 331 329 326 322 321 321 312 318 320 319 310
327 328 327 326 327 331 331 332 331 330 330 327 327 329 330 331 326 319 297 297 295 297 309 322 325 307 297 298 300 300 300 301
322 325 326 325 327 330 329 330 332 330 329 326 328 328 329 330 328 326 320 311 297 295 298 304 306 300 297 298 299 297 295 302
322 324 325 326 329 329 332 330 329 332 328 314 328 327 329 328 328 326 326 324 323 320 300 301 296 296 296 296 296 302 315 314
325 324 324 326 327 329 329 330 330 330 328 325 325 330 329 326 328 328 328 328 325 319 314 304 296 293 294 295 296 323 322 320
316 316 320 323 325 330 330 330 330 329 326 311 316 329 328 325 329 327 327 328 325 324 322 316 310 313 318 317 320 325 324 325
309 309 312 313 316 325 328 330 333 330 326 321 316 328 326 328 326 327 330 328 326 327 325 318 302 322 320 321 323 325 326 326
308 305 303 309 310 317 327 320 324 329 326 327 327 325 325 327 328 329 329 329 326 326 326 316 295 326 323 323 325 326 327 329

GFSFLT2_sfc_thetae_048.txt.gz
Theta_e
302 302 304 307 311 317 325 327 329 333 336 336 337 339 337 336 337 337 337 337 336 338 337 335 334 332 329 327 327 326 324 322
302 302 304 305 310 319 330 332 335 337 338 337 336 338 337 337 337 337 336 337 335 335 332 332 329 329 329 328 326 324 323 323
302 302 303 305 308 321 329 334 337 338 336 335 333 334 334 334 333 334 334 334 332 329 326 326 328 331 330 329 326 323 321 320
303 303 306 315 315 326 325 332 333 336 334 333 334 333 334 333 332 329 327 326 325 326 323 323 324 324 307 312 321 321 321 320
311 316 320 322 325 322 319 329 334 333 333 334 334 333 331 330 328 326 323 322 322 322 323 322 320 315 303 306 313 321 321 321
311 317 318 319 321 321 321 329 333 333 333 333 332 331 329 325 326 324 322 325 326 324 322 320 316 312 303 306 311 321 321 321
312 319 319 320 319 321 322 325 332 332 330 331 331 328 325 323 322 324 325 327 327 324 320 316 314 314 303 306 314 320 319 318
312 318 322 320 319 320 318 328 327 326 326 325 324 325 324 323 325 325 326 325 323 322 319 316 311 316 302 304 314 318 318 318
316 320 322 321 323 325 325 324 323 325 325 324 324 325 326 327 326 326 325 323 323 320 318 316 315 317 311 303 308 321 320 318
315 319 320 322 321 324 320 322 324 325 325 325 324 324 326 327 326 325 324 322 320 318 319 317 317 317 305 303 305 309 312 317
316 321 322 320 322 325 321 323 325 324 323 323 324 324 324 326 324 321 322 322 320 319 318 316 316 315 310 300 301 303 307 317
317 321 317 319 324 325 323 324 326 324 322 323 323 322 321 322 323 323 323 321 320 319 318 316 315 314 310 311 310 309 303 306
319 322 323 323 324 324 325 325 325 323 321 323 322 322 319 314 308 311 320 318 320 320 318 318 316 312 310 309 310 314 314 310
320 322 322 323 326 324 325 326 325 323 322 322 320 317 317 315 312 307 295 297 300 303 306 314 316 304 299 298 297 298 298 300
319 319 320 322 325 324 325 324 324 324 322 322 320 318 317 315 315 315 311 303 297 296 299 299 301 298 296 296 297 296 297 306
317 318 318 322 325 323 324 324 322 321 321 314 321 320 318 316 316 316 317 318 315 310 297 297 294 295 295 295 296 303 315 312
310 311 313 321 322 322 325 323 321 320 322 322 323 322 320 317 318 318 316 316 313 309 307 300 294 292 293 294 296 317 316 315
304 302 308 316 321 320 323 322 322 321 322 310 317 322 320 319 319 317 315 315 315 316 314 310 305 307 311 311 313 318 318 317
303 304 305 305 310 321 321 318 319 321 320 319 311 323 321 321 320 317 316 316 316 316 315 311 296 313 311 310 314 319 320 320
301 305 303 305 305 311 316 315 318 324 325 321 322 322 323 323 321 319 318 317 316 315 315 304 292 316 316 317 317 313 311 312